Location: Savignano sul Rubicone
(44.0950°N, 12.4090°E)
Time: 10:47:47
(UTC+01:00)

Envisat - Visible Passes

Search period start: 22 February 2019 00:00
Search period end: 04 March 2019 00:00
Orbit: 764 x 766 km, 98.2° (Epoch: 22 February)

Date Brightness Start Highest point End Pass type
(mag) Time Alt. Az. Time Alt. Az. Time Alt. Az.
22 Feb 2.9 18:38:18 10° SSE 18:43:22 77° ENE 18:48:28 10° N visible
22 Feb 6.0 20:20:30 10° WSW 20:22:58 13° W 20:25:27 10° WNW visible
23 Feb 5.0 19:41:27 10° SSW 19:45:51 29° W 19:50:15 10° NW visible
24 Feb 6.7 06:12:18 10° ENE 06:13:15 10° E 06:14:10 10° E visible
24 Feb 3.5 19:03:53 10° S 19:08:55 63° W 19:13:59 10° NNW visible
25 Feb 3.0 18:27:12 10° SSE 18:32:11 61° ENE 18:37:12 10° N visible
25 Feb 5.8 20:08:21 10° SW 20:11:37 17° W 20:14:55 10° NW visible
26 Feb 4.6 19:29:54 10° SSW 19:34:33 36° W 19:39:15 10° NNW visible
27 Feb 3.2 18:52:37 10° S 18:57:41 79° WSW 19:02:48 10° NNW visible
28 Feb 5.5 19:56:27 10° SW 20:00:17 21° W 20:04:10 10° NW visible
01 Mar 4.2 19:18:26 10° S 19:23:17 45° W 19:28:11 10° NNW visible
02 Mar 3.0 18:41:24 10° SSE 18:46:28 83° ENE 18:51:35 10° NNW visible
02 Mar 6.1 20:24:08 10° WSW 20:26:08 12° W 20:28:10 10° WNW visible
03 Mar 5.2 19:44:44 10° SSW 19:48:59 27° W 19:53:16 10° NW visible
